User: anonymous   Login
Location: Unspecified
(0.0000°N, 0.0000°E)
Time: 04:41:02
(UTC+00:00)
Language:

DUCHIFAT 1 - Orbit

View from above orbital plane
View from above orbital plane
View from above satellite
View from above satellite

Ground track
Ground track

The orbit data is extracted from the following two-line orbital elements,

1 40021U 14033M   19167.79875714  .00000350  00000-0  41537-4 0  9992
2 40021  97.9243  92.3861 0014315  59.4099 300.8529 14.90624815271267
Epoch (UTC): 16 June 2019 19:10:12
Eccentricity: 0.0014315
inclination: 97.9243°
perigee height: 586 km
apogee height: 606 km
right ascension of ascending node: 92.3861°
argument of perigee: 59.4099°
revolutions per day: 14.90624815
mean anomaly at epoch: 300.8529°
orbit number at epoch: 27126

The dashed part of the orbit path shows where the satellite is in the earth's shadow,  

DLR